Tracking 18980 objects as of 19-Feb-2018
HD Live streaming from Space Station
objects crossing your sky now

NIMBUS 2 DEB

Track NIMBUS 2 DEB now!
10-day predictions


NORAD ID: 42441
Int'l Code: 1966-040BU
Perigee: 1,104.0 km
Apogee: 1,175.6 km
Inclination: 100.3 °
Period: 108.0 minutes
Semi major axis: 7510 km
RCS: Unknown
Launch date: May 15, 1966
Source: United States (US)
Launch site: AIR FORCE WESTERN TEST RANGE (AFWTR)

Note: This is SATELLITE DEBRIS
aabbcc
Your satellite tracking list
Your tracking list is empty




NASA's NSSDC Master Catalog

Two Line Element Set (TLE):
1 42441U 66040BU  18049.79402720  .00000513  00000-0  11223-2 0  9994
2 42441 100.3159 158.8427 0047627 217.7748 142.0028 13.33747645 57274
Source of the keplerian elements: AFSPC